FW6466 Weather Reports


Display with metric or nautical units.
time (UTC)temp
F
wind
direction
speed
MPH
gust
MPH
rain 1hr
in
rain 24hr
in
rain mn
in
humidity
%
barometer
mb
20260503200017 58 304 5.0 10.0 0.00 0.00 0.00 30 1008.2
20260503195329 57 315 4.0 5.0 0.00 0.00 0.00 32 1008.4
20260503194313 58 315 5.0 15.0 0.00 0.00 0.00 30 1008.5
20260503193017 58 331 7.0 14.0 0.00 0.00 0.00 30 1008.6
20260503192015 56 325 7.0 23.0 0.00 0.00 0.00 31 1008.6
20260503191017 55 305 7.0 18.0 0.00 0.00 0.00 32 1008.7
20260503190351 56 315 4.0 8.0 0.00 0.00 0.00 33 1008.9
20260503185309 55 45 6.0 9.0 0.00 0.00 0.00 33 1009.0
20260503184517 55 311 7.0 15.0 0.00 0.00 0.00 33 1009.0
20260503183810 55 338 5.0 13.0 0.00 0.00 0.00 33 1009.1
20260503182516 56 320 6.0 18.0 0.00 0.00 0.00 34 1009.1
20260503181515 55 333 5.0 17.0 0.00 0.00 0.00 35 1009.2
20260503180516 54 323 7.0 13.0 0.00 0.00 0.00 35 1009.2
20260503175520 53 323 8.0 22.0 0.00 0.00 0.00 35 1009.3
20260503174834 53 315 6.0 10.0 0.00 0.00 0.00 37 1009.4
20260503174016 53 321 8.0 17.0 0.00 0.00 0.00 37 1009.4
20260503173018 52 324 6.0 14.0 0.00 0.00 0.00 39 1009.5
20260503172016 52 327 6.0 14.0 0.00 0.00 0.00 39 1009.5
20260503171313 51 315 5.0 10.0 0.00 0.00 0.00 42 1009.5
20260503170356 50 0 5.0 11.0 0.00 0.00 0.00 42 1009.5
20260503150901 48 315 4.0 11.0 0.00 0.00 0.00 49 1010.1
20260503140313 50 315 5.0 10.0 0.00 0.00 0.00 47 1010.3
20260503130516 45 325 5.0 11.0 0.00 0.00 0.00 60 1010.5
20260503110309 40 293 4.0 7.0 0.00 0.00 0.00 68 1010.0
20260503081017 39 323 5.0 9.0 0.00 0.00 0.00 68 1010.4
20260503080356 39 270 3.0 5.0 0.00 0.00 0.00 67 1010.5
20260503072516 38 315 4.0 12.0 0.00 0.00 0.00 67 1010.5
20260503071516 38 292 4.0 11.0 0.00 0.00 0.00 67 1010.5
20260503070517 37 315 4.0 10.0 0.00 0.00 0.00 67 1010.6
20260503055015 38 321 4.0 8.0 0.00 0.00 0.00 64 1011.2
20260503054342 38 45 3.0 5.0 0.00 0.00 0.00 64 1011.3
20260503053016 38 305 4.0 9.0 0.00 0.00 0.00 64 1011.4
20260503052312 39 293 3.0 5.0 0.00 0.00 0.00 63 1011.4
20260503051516 39 306 4.0 9.0 0.00 0.00 0.00 64 1011.4
20260503050515 39 314 4.0 10.0 0.00 0.00 0.00 63 1011.5
20260503045808 39 293 4.0 9.0 0.00 0.00 0.00 63 1011.6
20260503044536 39 321 4.0 9.0 0.00 0.00 0.00 62 1011.6
20260503043917 39 315 3.0 6.0 0.00 0.01 0.00 62 1011.7
20260503042909 40 225 3.0 3.0 0.00 0.01 0.00 61 1011.7
20260503041516 40 294 4.0 10.0 0.00 0.01 0.00 61 1011.7
20260503040909 41 315 4.0 4.0 0.00 0.01 0.00 60 1011.8
20260503035815 41 315 3.0 9.0 0.00 0.01 0.01 59 1011.9
20260503034517 41 309 4.0 11.0 0.00 0.01 0.01 58 1011.9
20260503033516 41 317 4.0 9.0 0.00 0.01 0.01 58 1011.8
20260503032848 41 315 3.0 10.0 0.00 0.01 0.01 57 1011.8
20260503032016 41 287 4.0 7.0 0.00 0.01 0.01 58 1011.8
20260503031307 42 0 3.0 1.0 0.00 0.01 0.01 59 1011.9
20260503030017 41 315 3.0 10.0 0.00 0.01 0.01 58 1012.0
20260503025036 41 274 2.0 6.0 0.00 0.01 0.01 59 1012.0
20260503024128 41 225 2.0 2.0 0.00 0.01 0.01 58 1012.0
20260503023517 41 211 2.0 5.0 0.00 0.01 0.01 59 1012.1
20260503022808 41 203 1.0 3.0 0.00 0.02 0.01 59 1012.1
20260503021517 41 220 2.0 3.0 0.00 0.02 0.01 59 1012.1
20260503020515 41 217 2.0 7.0 0.00 0.02 0.01 58 1012.2
20260503015856 42 180 2.0 2.0 0.00 0.02 0.01 56 1012.2
20260503014819 42 225 2.0 3.0 0.00 0.02 0.01 56 1012.1
20260503014016 42 218 2.0 3.0 0.00 0.02 0.01 55 1012.1
20260503013041 42 180 1.0 2.0 0.00 0.02 0.01 53 1012.1
20260503012036 43 202 1.0 2.0 0.00 0.02 0.01 53 1012.0
20260503011017 44 222 2.0 4.0 0.00 0.02 0.01 52 1012.0
20260503010017 44 231 1.0 6.0 0.00 0.02 0.01 50 1011.9
20260503005016 45 310 2.0 7.0 0.00 0.02 0.01 49 1011.8
20260503004016 45 223 1.0 6.0 0.00 0.02 0.01 49 1011.7
20260503003017 46 264 2.0 6.0 0.00 0.02 0.01 48 1011.6
20260503002016 46 317 3.0 7.0 0.00 0.02 0.01 46 1011.5
20260503001421 47 0 3.0 6.0 0.00 0.02 0.01 44 1011.5
20260503000307 48 225 3.0 4.0 0.00 0.02 0.01 44 1011.4
20260502235516 48 323 3.0 12.0 0.00 0.02 0.01 43 1011.4
20260502234809 49 270 4.0 3.0 0.00 0.02 0.01 42 1011.3
20260502234036 49 314 4.0 13.0 0.00 0.02 0.01 42 1011.2
20260502233015 50 318 6.0 20.0 0.00 0.02 0.01 40 1011.2
20260502232016 51 321 8.0 14.0 0.00 0.02 0.01 38 1011.1
20260502231015 52 327 6.0 18.0 0.00 0.02 0.01 38 1011.1
20260502230019 52 321 6.0 16.0 0.00 0.02 0.01 38 1011.0
20260502225016 51 324 6.0 14.0 0.00 0.02 0.01 39 1010.9
20260502224037 51 315 5.0 12.0 0.00 0.02 0.01 39 1010.9
20260502223016 51 319 8.0 16.0 0.00 0.02 0.01 38 1010.8
20260502222037 52 296 5.0 13.0 0.00 0.02 0.01 39 1010.8
20260502221015 52 311 4.0 13.0 0.00 0.02 0.01 38 1010.8
20260502220328 53 315 4.0 6.0 0.00 0.02 0.01 37 1010.8
20260502215516 54 323 4.0 11.0 0.00 0.02 0.01 35 1010.8
20260502214903 56 315 5.0 18.0 0.00 0.02 0.01 33 1010.8
20260502214017 57 320 6.0 19.0 0.00 0.02 0.01 33 1010.8
20260502213036 59 326 6.0 18.0 0.00 0.02 0.01 31 1010.8
20260502212015 59 335 5.0 14.0 0.00 0.02 0.01 32 1010.8
20260502211308 60 0 4.0 6.0 0.00 0.02 0.01 32 1010.8
20260502210347 59 315 5.0 11.0 0.00 0.02 0.01 31 1010.7
20260502205515 58 314 4.0 15.0 0.00 0.02 0.01 32 1010.7
20260502204856 57 0 6.0 17.0 0.00 0.02 0.01 31 1010.7
20260502203856 58 0 7.0 9.0 0.00 0.02 0.01 31 1010.8
20260502203015 58 303 8.0 20.0 0.00 0.02 0.01 32 1010.8
20260502202308 59 315 6.0 6.0 0.00 0.02 0.01 32 1010.9
20260502201017 58 314 9.0 24.0 0.00 0.02 0.01 30 1011.0